STARLINK-1198 (45200 NORAD) Tracking and Keplerian Element Data

This shows tracking and keplerian element data for the satellite.

Feedback or suggestion? Click here.




ElementValue
Catalog45200
NameSTARLINK-1198
Epoch Orbit175
Epoch Day189.91668981
Epoch Year2020
RAAN322.6825
Inclination52.9998
Eccentricity0.0001279
Argument of Perigee92.8227
Mean Anonmoly97.7937
Mean Motion15.05589995
Decay Rate-0.00028415
L11 45200U 20012Y 20189.91668981 -.00028415 00000-0 -19383-2 0 9992
L22 45200 52.9998 322.6825 0001279 92.8227 97.7937 15.05589995 1753

Live tracking and technical data element details for STARLINK-1198 (NORAD 45200). STARLINK-1198 can be tracked NOW for your location showing map with azimuth and elevation plus other details from your city location.

Track the satellite on the map from your city or location and see movement details for azimuth, elevation, latitude, longitude, range, height, and movement on the map or in text.







IsCatalogInMostPopularTable: catalog: 45200, numindb: 26
Update: records affected: 1



GetName: 45200 STARLINK-1198

Hit Count: updated at: Fri, 10 Jul 2020 02:28:47 GMT